TimeCST,TemperatureF,Dew PointF,Humidity,Sea Level PressureIn,VisibilityMPH,Wind Direction,Wind SpeedMPH,Gust SpeedMPH,PrecipitationIn,Events,Conditions,WindDirDegrees,DateUTC
12:53 AM,16.0,12.9,88,29.95,7.0,WNW,10.4,-,N/A,,Clear,290,2013-01-08 06:53:00
1:53 AM,14.0,12.0,92,29.95,6.0,West,3.5,-,N/A,,Clear,270,2013-01-08 07:53:00
2:53 AM,12.0,10.0,92,29.93,6.0,SW,9.2,-,N/A,,Clear,220,2013-01-08 08:53:00
3:53 AM,10.9,9.0,92,29.91,7.0,WNW,5.8,-,N/A,,Clear,290,2013-01-08 09:53:00
4:53 AM,10.9,8.1,88,29.91,7.0,SW,5.8,-,N/A,,Clear,220,2013-01-08 10:53:00
5:53 AM,8.6,6.8,92,29.81,8.0,West,5.8,-,N/A,,Clear,270,2013-01-08 11:53:00
6:53 AM,10.0,6.1,84,29.92,8.0,West,5.8,-,N/A,,Clear,270,2013-01-08 12:53:00
7:53 AM,12.2,8.6,85,29.83,9.0,WSW,9.2,-,N/A,,Clear,250,2013-01-08 13:53:00
8:53 AM,15.1,10.9,84,29.96,8.0,WSW,10.4,-,N/A,,Clear,240,2013-01-08 14:53:00
9:53 AM,19.9,16.0,85,29.99,10.0,Calm,Calm,-,N/A,,Clear,0,2013-01-08 15:53:00
10:53 AM,24.1,18.0,77,29.98,10.0,WSW,4.6,-,N/A,,Clear,250,2013-01-08 16:53:00
11:53 AM,27.0,19.0,72,29.99,10.0,WSW,6.9,-,N/A,,Clear,240,2013-01-08 17:53:00
12:53 PM,32.0,24.1,73,29.99,10.0,SW,6.9,-,N/A,,Clear,220,2013-01-08 18:53:00
1:53 PM,39.9,28.0,63,29.99,10.0,WNW,12.7,-,N/A,,Clear,300,2013-01-08 19:53:00
2:53 PM,42.1,28.9,60,30.02,10.0,WNW,12.7,-,N/A,,Clear,300,2013-01-08 20:53:00
3:53 PM,42.1,30.0,62,30.06,10.0,WNW,6.9,-,N/A,,Clear,300,2013-01-08 21:53:00
4:53 PM,45.0,28.9,53,30.09,10.0,West,4.6,-,N/A,,Clear,260,2013-01-08 22:53:00
5:53 PM,41.0,28.0,60,30.13,10.0,West,4.6,-,N/A,,Clear,260,2013-01-08 23:53:00
6:53 PM,37.9,28.0,68,30.16,10.0,WSW,8.1,-,N/A,,Clear,240,2013-01-09 00:53:00
7:53 PM,33.1,27.0,78,30.19,10.0,West,10.4,-,N/A,,Clear,280,2013-01-09 01:53:00
8:53 PM,28.9,24.1,82,30.23,10.0,West,8.1,-,N/A,,Clear,270,2013-01-09 02:53:00
9:53 PM,27.0,24.1,89,30.25,10.0,WSW,8.1,-,N/A,,Clear,240,2013-01-09 03:53:00
10:53 PM,26.6,23.0,86,30.19,10.0,WSW,6.9,-,N/A,,Clear,250,2013-01-09 04:53:00
11:53 PM,24.1,21.0,88,30.30,9.0,Variable,6.9,-,N/A,,Clear,0,2013-01-09 05:53:00